When you browse on this site, cookies collect data to enhance your experience and personalize the content and advertising you see.
Visit our Privacy Policy to learn more. By continuing to use the site, you agree to this use of cookies and data.
  • en Suisse
  • Liste des pays
  • À 7 jours
  • Température de l'eau
  • Carte satellitaire
  • Carte météo
  • Widgets météo
  • user-avatar
    Se connecter

    Météo par heure à Shеki

    Ce jour, 16 Juin, Dimanche

    Heure Température Précipitation Vent Pression Humidité
    00:00 +24°C° 0 mm 2 m/s 733 mmHg 43%
    01:00 +24°C° 0 mm 1 m/s 733 mmHg 44%
    02:00 +23°C° 0 mm 1 m/s 733 mmHg 45%
    03:00 +23°C° 0 mm 1 m/s 733 mmHg 46%
    04:00 +24°C° 0 mm 1 m/s 733 mmHg 45%
    05:00 +25°C° 0 mm 1 m/s 733 mmHg 45%
    06:00 +24°C° 0 mm 0 m/s 732 mmHg 44%
    07:00 +27°C° 0 mm 1 m/s 732 mmHg 41%
    08:00 +29°C° 0 mm 1 m/s 732 mmHg 37%
    09:00 +30°C° 0 mm 1 m/s 732 mmHg 34%
    10:00 +31°C° 0.1 mm 2 m/s 732 mmHg 32%
    11:00 +34°C° 0.1 mm 2 m/s 731 mmHg 30%
    12:00 +35°C° 0.1 mm 2 m/s 731 mmHg 29%
    13:00 +35°C° 0.1 mm 2 m/s 731 mmHg 28%
    14:00 +36°C° 0.1 mm 2 m/s 730 mmHg 27%
    15:00 +36°C° 0.1 mm 2 m/s 730 mmHg 26%
    16:00 +36°C° 0 mm 2 m/s 730 mmHg 28%
    17:00 +35°C° 0 mm 2 m/s 730 mmHg 30%
    18:00 +35°C° 0 mm 2 m/s 730 mmHg 32%
    19:00 +32°C° 0 mm 2 m/s 730 mmHg 35%
    20:00 +29°C° 0 mm 2 m/s 730 mmHg 38%
    21:00 +27°C° 0 mm 2 m/s 731 mmHg 40%
    22:00 +27°C° 0 mm 2 m/s 731 mmHg 41%
    23:00 +27°C° 0 mm 2 m/s 730 mmHg 41%

    Demain, 17 Juin, Lundi

    Heure Température Précipitation Vent Pression Humidité
    00:00 +26°C° 0 mm 1 m/s 730 mmHg 41%
    01:00 +25°C° 0 mm 1 m/s 730 mmHg 43%
    02:00 +25°C° 0 mm 1 m/s 730 mmHg 45%
    03:00 +24°C° 0 mm 1 m/s 730 mmHg 47%
    04:00 +23°C° 0 mm 0 m/s 730 mmHg 47%
    05:00 +24°C° 0 mm 0 m/s 730 mmHg 47%
    06:00 +25°C° 0 mm 0 m/s 730 mmHg 48%
    07:00 +27°C° 0 mm 0 m/s 730 mmHg 45%
    08:00 +30°C° 0 mm 1 m/s 731 mmHg 43%
    09:00 +32°C° 0 mm 1 m/s 731 mmHg 40%
    10:00 +33°C° 0.1 mm 1 m/s 731 mmHg 37%
    11:00 +35°C° 0.1 mm 2 m/s 730 mmHg 35%
    12:00 +36°C° 0.1 mm 2 m/s 730 mmHg 32%
    13:00 +37°C° 0.2 mm 2 m/s 730 mmHg 32%
    14:00 +37°C° 0.2 mm 3 m/s 730 mmHg 31%
    15:00 +37°C° 0.2 mm 3 m/s 730 mmHg 30%
    16:00 +37°C° 0.2 mm 3 m/s 730 mmHg 33%
    17:00 +36°C° 0.2 mm 3 m/s 730 mmHg 35%
    18:00 +36°C° 0.2 mm 4 m/s 730 mmHg 38%
    19:00 +33°C° 0.7 mm 4 m/s 730 mmHg 44%
    20:00 +30°C° 0.7 mm 4 m/s 731 mmHg 50%
    21:00 +27°C° 0.7 mm 4 m/s 731 mmHg 56%
    22:00 +27°C° 0.7 mm 3 m/s 731 mmHg 60%
    23:00 +26°C° 0.7 mm 2 m/s 731 mmHg 64%

    Après-demain, 18 Juin, Mardi

    Heure Température Précipitation Vent Pression Humidité
    00:00 +25°C° 0.7 mm 1 m/s 731 mmHg 68%
    01:00 +24°C° 0.2 mm 1 m/s 731 mmHg 68%
    02:00 +24°C° 0.2 mm 1 m/s 731 mmHg 67%
    03:00 +24°C° 0.2 mm 1 m/s 731 mmHg 67%
    04:00 +24°C° 0.1 mm 1 m/s 731 mmHg 66%
    05:00 +25°C° 0.1 mm 1 m/s 731 mmHg 65%
    06:00 +26°C° 0.1 mm 1 m/s 732 mmHg 65%
    07:00 +27°C° 0.2 mm 1 m/s 732 mmHg 60%
    08:00 +28°C° 0.2 mm 1 m/s 732 mmHg 55%
    09:00 +30°C° 0.2 mm 1 m/s 732 mmHg 50%
    10:00 +31°C° 0.4 mm 2 m/s 732 mmHg 46%
    11:00 +32°C° 0.4 mm 2 m/s 731 mmHg 41%
    12:00 +35°C° 0.4 mm 3 m/s 731 mmHg 37%
    13:00 +35°C° 0.2 mm 3 m/s 731 mmHg 35%
    14:00 +36°C° 0.2 mm 3 m/s 731 mmHg 34%
    15:00 +36°C° 0.2 mm 3 m/s 731 mmHg 32%
    16:00 +36°C° 0.4 mm 3 m/s 731 mmHg 35%
    17:00 +35°C° 0.4 mm 3 m/s 731 mmHg 37%
    18:00 +34°C° 0.4 mm 3 m/s 731 mmHg 40%
    19:00 +31°C° 1 mm 3 m/s 731 mmHg 48%
    20:00 +28°C° 1 mm 3 m/s 731 mmHg 57%
    21:00 +26°C° 1 mm 3 m/s 732 mmHg 66%
    22:00 +25°C° 0.7 mm 2 m/s 732 mmHg 68%
    23:00 +25°C° 0.7 mm 2 m/s 732 mmHg 70%

    19 Juin, Mercredi

    Heure Température Précipitation Vent Pression Humidité
    00:00 +24°C° 0.7 mm 2 m/s 732 mmHg 72%
    01:00 +24°C° 0.2 mm 2 m/s 732 mmHg 73%
    02:00 +24°C° 0.2 mm 2 m/s 732 mmHg 74%
    03:00 +23°C° 0.2 mm 2 m/s 732 mmHg 75%
    04:00 +24°C° 0 mm 1 m/s 732 mmHg 74%
    05:00 +25°C° 0 mm 1 m/s 732 mmHg 72%
    06:00 +25°C° 0 mm 1 m/s 732 mmHg 71%
    07:00 +27°C° 0 mm 1 m/s 732 mmHg 64%
    08:00 +28°C° 0 mm 1 m/s 732 mmHg 57%
    09:00 +30°C° 0 mm 2 m/s 732 mmHg 50%
    10:00 +31°C° 0.1 mm 2 m/s 732 mmHg 45%
    11:00 +32°C° 0.1 mm 2 m/s 732 mmHg 40%
    12:00 +34°C° 0.1 mm 3 m/s 732 mmHg 35%
    13:00 +35°C° 0.1 mm 3 m/s 731 mmHg 34%
    14:00 +35°C° 0.1 mm 3 m/s 731 mmHg 33%
    15:00 +36°C° 0.1 mm 3 m/s 731 mmHg 32%
    16:00 +35°C° 0.2 mm 3 m/s 731 mmHg 34%
    17:00 +35°C° 0.2 mm 3 m/s 731 mmHg 35%
    18:00 +34°C° 0.2 mm 3 m/s 731 mmHg 37%
    19:00 +31°C° 0 mm 3 m/s 731 mmHg 39%
    20:00 +30°C° 0 mm 3 m/s 731 mmHg 41%
    21:00 +28°C° 0 mm 3 m/s 732 mmHg 43%
    22:00 +27°C° 0 mm 3 m/s 732 mmHg 44%
    23:00 +26°C° 0 mm 2 m/s 732 mmHg 45%

    20 Juin, Jeudi

    Heure Température Précipitation Vent Pression Humidité
    00:00 +25°C° 0 mm 2 m/s 732 mmHg 46%
    01:00 +25°C° 0 mm 2 m/s 732 mmHg 46%
    02:00 +25°C° 0 mm 2 m/s 731 mmHg 47%
    03:00 +25°C° 0 mm 2 m/s 731 mmHg 47%
    04:00 +25°C° 0 mm 2 m/s 731 mmHg 47%
    05:00 +26°C° 0 mm 1 m/s 731 mmHg 46%
    06:00 +27°C° 0 mm 1 m/s 731 mmHg 45%
    07:00 +28°C° 0 mm 2 m/s 732 mmHg 41%
    08:00 +30°C° 0 mm 2 m/s 732 mmHg 37%
    09:00 +31°C° 0 mm 2 m/s 732 mmHg 34%
    10:00 +33°C° 0 mm 3 m/s 732 mmHg 32%
    11:00 +34°C° 0 mm 3 m/s 731 mmHg 29%
    12:00 +35°C° 0 mm 3 m/s 731 mmHg 27%
    13:00 +36°C° 0.1 mm 3 m/s 731 mmHg 27%
    14:00 +37°C° 0.1 mm 4 m/s 731 mmHg 26%
    15:00 +37°C° 0.1 mm 4 m/s 730 mmHg 25%
    16:00 +36°C° 0.1 mm 4 m/s 730 mmHg 28%
    17:00 +36°C° 0.1 mm 5 m/s 730 mmHg 30%
    18:00 +35°C° 0.1 mm 5 m/s 730 mmHg 32%
    19:00 +33°C° 0 mm 4 m/s 731 mmHg 35%
    20:00 +30°C° 0 mm 4 m/s 731 mmHg 39%
    21:00 +28°C° 0 mm 3 m/s 731 mmHg 42%
    22:00 +28°C° 0 mm 3 m/s 732 mmHg 44%
    23:00 +27°C° 0 mm 3 m/s 732 mmHg 47%

    21 Juin, Vendredi

    Heure Température Précipitation Vent Pression Humidité
    00:00 +26°C° 0 mm 3 m/s 732 mmHg 49%
    01:00 +26°C° 0 mm 3 m/s 732 mmHg 50%
    02:00 +25°C° 0 mm 3 m/s 732 mmHg 51%
    03:00 +25°C° 0 mm 3 m/s 732 mmHg 52%
    04:00 +25°C° 0.1 mm 2 m/s 732 mmHg 54%
    05:00 +26°C° 0.1 mm 2 m/s 732 mmHg 55%
    06:00 +26°C° 0.1 mm 2 m/s 732 mmHg 56%
    07:00 +26°C° 0.1 mm 2 m/s 732 mmHg 54%
    08:00 +27°C° 0.1 mm 2 m/s 733 mmHg 53%
    09:00 +27°C° 0.1 mm 3 m/s 733 mmHg 51%
    10:00 +27°C° 0.3 mm 3 m/s 733 mmHg 55%
    11:00 +26°C° 0.3 mm 4 m/s 733 mmHg 60%
    12:00 +26°C° 0.3 mm 5 m/s 733 mmHg 64%
    13:00 +27°C° 0.1 mm 4 m/s 733 mmHg 57%
    14:00 +28°C° 0.1 mm 3 m/s 733 mmHg 50%
    15:00 +30°C° 0.1 mm 2 m/s 733 mmHg 42%
    16:00 +29°C° 0 mm 2 m/s 733 mmHg 44%
    17:00 +28°C° 0 mm 1 m/s 733 mmHg 47%
    18:00 +28°C° 0 mm 1 m/s 733 mmHg 49%
    19:00 +27°C° 0 mm 1 m/s 733 mmHg 48%
    20:00 +27°C° 0 mm 1 m/s 734 mmHg 48%
    21:00 +26°C° 0 mm 1 m/s 734 mmHg 47%
    22:00 +26°C° 0 mm 1 m/s 734 mmHg 47%
    23:00 +25°C° 0 mm 1 m/s 734 mmHg 47%
    Voir plus